Time,TemperatureF,DewpointF,PressureIn,WindDirection,WindDirectionDegrees,WindSpeedMPH,WindSpeedGustMPH,Humidity,HourlyPrecipIn,Conditions,Clouds,dailyrainin,SoftwareType,DateUTC
2013-08-27 00:13:00,75.0,72.0,29.96,South,179,0.0,-999.0,89,-99.99,,,-99.99,,2013-08-27 05:13:00,
2013-08-27 00:23:00,75.0,72.0,29.96,South,180,0.0,-999.0,90,-99.99,,,-99.99,,2013-08-27 05:23:00,
2013-08-27 00:43:00,75.0,72.0,29.96,South,177,0.0,-999.0,89,-99.99,,,-99.99,,2013-08-27 05:43:00,
2013-08-27 00:52:00,74.0,71.0,29.96,South,177,0.0,-999.0,90,-99.99,,,-99.99,,2013-08-27 05:52:00,
2013-08-27 01:12:00,74.0,71.0,29.96,South,177,0.0,-999.0,91,-99.99,,,-99.99,,2013-08-27 06:12:00,
2013-08-27 01:22:00,74.0,72.0,29.96,South,177,0.0,-999.0,92,-99.99,,,-99.99,,2013-08-27 06:22:00,
2013-08-27 01:42:00,74.0,71.0,29.96,South,178,0.0,-999.0,91,-99.99,,,-99.99,,2013-08-27 06:42:00,
2013-08-27 01:52:00,74.0,71.0,29.96,South,178,0.0,-999.0,90,-99.99,,,-99.99,,2013-08-27 06:52:00,
2013-08-27 02:12:00,75.0,72.0,29.95,South,178,0.0,-999.0,89,-99.99,,,-99.99,,2013-08-27 07:12:00,
2013-08-27 02:21:00,75.0,72.0,29.95,South,178,0.0,-999.0,89,-99.99,,,-99.99,,2013-08-27 07:21:00,
2013-08-27 02:42:00,75.0,71.0,29.95,South,178,0.0,-999.0,88,-99.99,,,-99.99,,2013-08-27 07:42:00,
2013-08-27 02:52:00,75.0,71.0,29.95,South,178,0.0,-999.0,88,-99.99,,,-99.99,,2013-08-27 07:52:00,
2013-08-27 03:11:00,75.0,72.0,29.94,South,178,0.0,-999.0,89,-99.99,,,-99.99,,2013-08-27 08:11:00,
2013-08-27 03:22:00,75.0,72.0,29.94,South,180,0.0,-999.0,89,-99.99,,,-99.99,,2013-08-27 08:22:00,
2013-08-27 03:42:00,74.0,71.0,29.93,South,180,0.0,-999.0,89,-99.99,,,-99.99,,2013-08-27 08:42:00,
2013-08-27 03:52:00,74.0,71.0,29.93,SW,217,0.0,-999.0,89,-99.99,,,-99.99,,2013-08-27 08:52:00,
2013-08-27 04:11:00,75.0,71.0,29.93,SW,214,0.0,-999.0,88,-99.99,,,-99.99,,2013-08-27 09:11:00,
2013-08-27 04:21:00,75.0,71.0,29.93,WSW,241,0.0,-999.0,88,-99.99,,,-99.99,,2013-08-27 09:21:00,
2013-08-27 04:43:00,75.0,71.0,29.93,SW,228,0.0,-999.0,88,-99.99,,,-99.99,,2013-08-27 09:43:00,
2013-08-27 04:54:00,75.0,71.0,29.93,SW,225,0.0,-999.0,88,-99.99,,,-99.99,,2013-08-27 09:54:00,
2013-08-27 05:14:00,74.0,70.0,29.93,SW,225,0.0,-999.0,88,-99.99,,,-99.99,,2013-08-27 10:14:00,
2013-08-27 05:25:00,74.0,71.0,29.93,SW,225,0.0,-999.0,89,-99.99,,,-99.99,,2013-08-27 10:25:00,
2013-08-27 05:43:00,74.0,71.0,29.93,WSW,255,0.0,-999.0,89,-99.99,,,-99.99,,2013-08-27 10:43:00,
2013-08-27 05:53:00,74.0,71.0,29.93,WSW,241,0.0,-999.0,89,-99.99,,,-99.99,,2013-08-27 10:53:00,
2013-08-27 06:12:00,74.0,71.0,29.93,WSW,258,0.0,-999.0,89,-99.99,,,-99.99,,2013-08-27 11:12:00,
2013-08-27 06:22:00,74.0,71.0,29.93,West,261,0.0,-999.0,90,-99.99,,,-99.99,,2013-08-27 11:22:00,
2013-08-27 06:42:00,73.0,70.0,29.94,SW,229,0.0,-999.0,90,-99.99,,,-99.99,,2013-08-27 11:42:00,
2013-08-27 06:52:00,73.0,70.0,29.95,WSW,246,0.0,-999.0,91,-99.99,,,-99.99,,2013-08-27 11:52:00,
2013-08-27 07:12:00,73.0,70.0,29.95,WSW,252,0.0,-999.0,91,-99.99,,,-99.99,,2013-08-27 12:12:00,
2013-08-27 07:21:00,73.0,70.0,29.95,WSW,254,0.0,-999.0,91,-99.99,,,-99.99,,2013-08-27 12:21:00,
2013-08-27 07:42:00,74.0,71.0,29.96,SSW,210,0.0,-999.0,90,-99.99,,,-99.99,,2013-08-27 12:42:00,
2013-08-27 07:52:00,75.0,72.0,29.96,SW,233,0.0,-999.0,89,-99.99,,,-99.99,,2013-08-27 12:52:00,
2013-08-27 08:11:00,76.0,72.0,29.96,WSW,240,0.0,-999.0,88,-99.99,,,-99.99,,2013-08-27 13:11:00,
2013-08-27 08:22:00,77.0,72.0,29.95,WSW,248,0.0,-999.0,86,-99.99,,,-99.99,,2013-08-27 13:22:00,
2013-08-27 08:42:00,78.0,73.0,29.95,WSW,250,1.0,-999.0,85,-99.99,,,-99.99,,2013-08-27 13:42:00,
2013-08-27 08:52:00,78.0,73.0,29.95,SW,234,1.0,-999.0,84,-99.99,,,-99.99,,2013-08-27 13:52:00,
2013-08-27 09:11:00,78.0,72.0,29.94,WSW,252,2.0,-999.0,83,-99.99,,,-99.99,,2013-08-27 14:11:00,
2013-08-27 09:22:00,78.0,72.0,29.94,WSW,252,2.0,-999.0,83,-99.99,,,-99.99,,2013-08-27 14:22:00,
2013-08-27 09:42:00,79.0,73.0,29.93,SW,218,0.0,-999.0,83,-99.99,,,-99.99,,2013-08-27 14:42:00,
2013-08-27 09:53:00,80.0,74.0,29.93,SW,232,1.0,-999.0,82,-99.99,,,-99.99,,2013-08-27 14:53:00,
2013-08-27 10:11:00,81.0,75.0,29.93,SW,231,1.0,-999.0,81,-99.99,,,-99.99,,2013-08-27 15:11:00,
2013-08-27 10:22:00,82.0,75.0,29.93,West,265,3.0,-999.0,80,-99.99,,,-99.99,,2013-08-27 15:22:00,
2013-08-27 10:45:00,82.0,75.0,29.93,WSW,246,2.0,-999.0,79,-99.99,,,-99.99,,2013-08-27 15:45:00,
2013-08-27 10:58:00,83.0,75.0,29.93,WSW,257,3.0,-999.0,76,-99.99,,,-99.99,,2013-08-27 15:58:00,
2013-08-27 11:17:00,84.0,76.0,29.93,WSW,238,3.0,-999.0,77,-99.99,,,-99.99,,2013-08-27 16:17:00,
2013-08-27 11:28:00,85.0,76.0,29.93,West,269,4.0,-999.0,75,-99.99,,,-99.99,,2013-08-27 16:28:00,
2013-08-27 11:35:00,85.0,76.0,29.93,West,269,4.0,-999.0,75,-99.99,,,-99.99,,2013-08-27 16:35:00,
2013-08-27 11:46:00,85.0,76.0,29.93,West,269,4.0,-999.0,75,-99.99,,,-99.99,,2013-08-27 16:46:00,
2013-08-27 11:55:00,86.0,76.0,29.92,SW,220,3.0,-999.0,72,-99.99,,,-99.99,,2013-08-27 16:55:00,
2013-08-27 12:13:00,87.0,77.0,29.91,WSW,242,3.0,-999.0,72,-99.99,,,-99.99,,2013-08-27 17:13:00,
2013-08-27 12:23:00,87.0,76.0,29.91,WSW,237,3.0,-999.0,71,-99.99,,,-99.99,,2013-08-27 17:23:00,
2013-08-27 12:52:00,88.0,77.0,29.90,SW,234,3.0,-999.0,71,-99.99,,,-99.99,,2013-08-27 17:52:00,
2013-08-27 13:12:00,88.0,76.0,29.89,SSW,194,4.0,-999.0,67,-99.99,,,-99.99,,2013-08-27 18:12:00,
2013-08-27 13:22:00,88.0,76.0,29.89,SSW,194,4.0,-999.0,67,-99.99,,,-99.99,,2013-08-27 18:22:00,
2013-08-27 13:42:00,89.0,76.0,29.88,WSW,244,4.0,-999.0,66,-99.99,,,-99.99,,2013-08-27 18:42:00,
2013-08-27 13:53:00,89.0,77.0,29.87,SW,219,4.0,-999.0,67,-99.99,,,-99.99,,2013-08-27 18:53:00,
2013-08-27 14:11:00,90.0,77.0,29.87,SW,215,3.0,-999.0,66,-99.99,,,-99.99,,2013-08-27 19:11:00,
2013-08-27 14:22:00,90.0,76.0,29.87,SW,215,4.0,-999.0,63,-99.99,,,-99.99,,2013-08-27 19:22:00,
2013-08-27 14:42:00,90.0,76.0,29.86,SW,228,3.0,-999.0,64,-99.99,,,-99.99,,2013-08-27 19:42:00,
2013-08-27 14:52:00,90.0,76.0,29.86,West,259,4.0,-999.0,64,-99.99,,,-99.99,,2013-08-27 19:52:00,
2013-08-27 15:11:00,91.0,77.0,29.86,South,180,3.0,-999.0,64,-99.99,,,-99.99,,2013-08-27 20:11:00,